OBJECT B (44702 NORAD) Tracking and Keplerian Element Data

This shows tracking and keplerian element data for the satellite.

Feedback or suggestion? Click here.




ElementValue
Catalog44702
NameOBJECT B
Epoch Orbit81
Epoch Day311.62135293
Epoch Year2019
RAAN7.3892
Inclination51.6052
Eccentricity0.0011636
Argument of Perigee140.1703
Mean Anonmoly344.835
Mean Motion16.44869418
Decay Rate0.1184744
L11 44702U 19071B 19311.62135293 .11847440 12386-4 30497-3 0 9990
L22 44702 51.6052 7.3892 0011636 140.1703 344.8350 16.44869418 817



Live tracking and technical data element details for OBJECT B (NORAD 44702). OBJECT B can be tracked NOW for your location showing map with azimuth and elevation plus other details from your city location.







IsCatalogInMostPopularTable: catalog: 44702, numindb: 294
Update: records affected: 1



GetName: 44702 OBJECT B

Hit Count: updated at: Sat, 24 May 2025 17:13:42 GMT